SATCOM 3 DEB, 49957

Orbit data source: Space-Track

SATCOM 3 DEB, 49957 is space debris in HEO originally from a launch on Fri, 07 Dec 1979 UTC launched from the Air Force Eastern Test Range (AFETR). Debris objects in space refer to the collection of defunct objects orbiting the Earth. Examples of debris include non-operational satellites, rocket bodies, and fragments generated from explosions, collisions, or faulty payload assembly.

Loading next visibility...
Identifier
49957, 1979-101AB
Orbit
HEO
Country
Flag of USUS
Related business
Manufacturer
Unknown
Mission
Spacecraft
Bus & Motor
Unknown
Mass
Unknown
Launch date (UTC)
1979-12-07 (47 years ago)
Launch vehicle
Unknown
Launch site
Air Force Eastern Test Range (AFETR)
Object type
Payload
Rocket body
Debris
Shape & HBR
Unknown shape, 1.1 m
Radar Cross Section
RCS unknown

Expand to show TLE details & history
Last TLE update: 2 days ago

TLE from 2 days ago
0 SATCOM 3 DEB
1 49957U 79101AB  26171.47069311 -.00000082  00000-0  00000+0 0  9990
2 49957   8.6682 102.7586 4793403  65.8651  24.4013  1.81981023 83633
Epoch: 2026-06-20T11:17Z
TLE epoch observation values (Epoch: 2026-06-20T11:17:47.884Z)
Latitude
6.28988°
Longitude
158.27685°
Altitude
12,090.372 km
Speed
5.394 km/s
True Right ascension
15h 45m 38s
True Declination
6° 16' 32"
Sunlit
Object was in daylight at epoch
Visualization orbit readout
Latitude
Unknown
Longitude
Unknown
Altitude
Unknown
Speed
Unknown
Apparent Right ascension
Unknown
Apparent Declination
Unknown
Sunlit
N/A
Visualization observer readout
Local Sidereal Time
21:41:52
Azimuth
Unknown
Elevation
Unknown
Doppler factor
Unknown
Orbital elements
Apogee altitude
35,548.191 km
Perigee altitude
8,378.001 km
Semi-major axis
28,341.233 km
Eccentricity
0.47934
Inclination
8.6682°
RAAN
102.7586°
Arg. of periapsis
65.8651°
True anomaly
67.4405°
Mean anomaly
24.4013°
Eccentric anomaly
43.2028°
Mean motion
0.4549 °/min
Orbital period
791.38 mins
BSTAR
0
Loading maneuver chart data...
Computing Atmospheric mass density...
Loading historical data...
Loading historical data...
Loading historical data...
Loading historical data...
Loading historical data...
Loading historical data...
Loading historical data...

Documentation

Showing up to 5 results
|